{"data":{"norad_id":63788,"intl_designator":"2025-091P","name":"STARLINK-33882","alt_names":[],"object_type":"PAYLOAD","status":"ACTIVE","operator":null,"country":"US","launch_date":"2025-05-02","launch_site_code":"AFETR","launch_vehicle":null,"mission":null,"orbit_class":"UNKNOWN","rcs_meters":null,"size_class":null,"mass_kg":null,"dimensions":null,"purposes":["comms"],"wikipedia_slug":null,"has_3d_model":false,"image_url":null,"decayed_at":null,"tle_current":{"epoch":"2026-05-24T22:31:26.424192Z","epoch_age_seconds":90950,"freshness":"FRESH","line1":"1 63788U 25091P   26144.93850028  .00019931  00000+0  73136-3 0  9996","line2":"2 63788  43.0036 341.8974 0001750 258.6538 101.4118 15.27601618 60555","mean_motion":15.27601618,"eccentricity":0.000175,"inclination_deg":43.0036,"raan_deg":341.8974,"arg_perigee_deg":258.6538,"mean_anomaly_deg":101.4118,"bstar":0.00073136,"rev_number":6055,"period_min":94.265414688766,"perigee_km":481.78366849518,"apogee_km":484.18506097283,"semimajor_km":6861.121364734,"source":"CELESTRAK","updated_at":"2026-05-25T13:38:20.135498Z"}}}